[[{"header":{"parameterUnit":"m.s-1","parameterCategory":1,"la1":30.2991,"la2":30.254,"lo1":-89.0895,"lo2":-89.0444,"dy":0.0017,"dx":0.0017,"nx":28,"ny":28,"refTime":"2024-04-26T03:00:00:Z","depth":0,"parameterNumber":2,"parameterNumberName":"U-component_of_WINDS"},"data":[0,0,0,0,0,0,0,0,0,0,0,0,0,0,0,0,0,0,0,0,0,0,0,0,0,0,0,0,0,0,0,0,0,0,0,0,0,0,0,0,0,0,0,0,0,0,0,0,0,0,0,0,0,0,0,0,0,0,-5.5795,-5.5797,0,-5.5957,-5.5959,-5.5961,-5.5925,-5.5922,-5.5919,-5.5916,-5.608,-5.6087,-5.6094,0,0,0,0,0,0,0,0,0,0,0,0,0,-5.5454,-5.546,-5.5795,-5.5797,-5.5799,-5.5957,-5.5959,-5.5961,-5.5925,-5.5922,-5.5918,-5.5914,-5.6078,-5.6086,-5.6095,0,0,0,0,0,0,0,0,0,0,0,0,0,-5.5607,-5.5462,-5.5795,-5.58,-5.5802,-5.5957,-5.5959,-5.5962,-5.5926,-5.5921,-5.5917,-5.5913,-5.6075,-5.6086,-5.6096,-5.6255,0,0,-5.6129,-5.6134,0,0,0,0,0,0,0,0,-5.5599,-5.562,-5.5797,-5.58,-5.5803,-5.5916,-5.5899,-5.606,-5.5927,-5.5879,-5.5916,-5.591,-5.6029,-5.6044,-5.6084,-5.6262,-5.6269,-5.613,-5.6137,-5.6142,-5.6145,0,0,0,0,0,0,0,-5.5588,-5.5613,-5.5859,-5.58,-5.5803,-5.5794,-5.5811,-5.5929,-5.5978,-5.5883,-5.5881,-5.59,-5.603,-5.6074,-5.6088,-5.6272,-5.613,-5.614,-5.6146,-5.6151,-5.6588,-5.6593,0,0,0,0,0,0,-5.5575,-5.5604,-5.5854,-5.5864,-5.5687,-5.5804,-5.5823,-5.5884,-5.5976,-5.5986,-5.5904,-5.5898,-5.6057,-5.6075,-5.6093,-5.6284,-5.6141,-5.6152,-5.6158,-5.6583,-5.6589,-5.6595,0,0,0,0,0,0,-5.5568,-5.5598,-5.5847,-5.5734,-5.5765,-5.5815,-5.5884,-5.589,-5.5934,-5.5992,-5.6001,-5.594,-5.6054,-5.6078,-5.6215,-5.6289,-5.6156,-5.6166,-5.6577,-5.6585,-5.6592,-5.6667,0,0,0,0,0,0,-5.5559,-5.5596,-5.5656,-5.5735,-5.5771,-5.5967,-5.5889,-5.5896,-5.5953,-5.5946,-5.6028,-5.6037,-5.6053,-5.6199,-5.6226,-5.6302,-5.6175,-5.6571,-5.6581,-5.659,-5.6658,-5.6676,-5.6692,0,0,0,0,0,-5.5546,-5.5671,-5.566,-5.569,-5.5848,-5.5971,-5.5991,-5.6007,-5.5959,-5.602,-5.6058,-5.6035,-5.6277,-5.6213,-5.6243,-5.6323,-5.6566,-5.6578,-5.6589,-5.6651,-5.6673,-5.6692,0,0,0,0,0,0,-5.5598,-5.5681,-5.567,-5.5823,-5.5891,-5.5965,-5.6042,-5.603,-5.6112,-5.6102,-5.6118,-5.6136,-5.6276,-5.6314,-5.6241,-5.6482,-5.6415,-5.6433,-5.6451,-5.6473,-5.649,-5.6476,-5.6184,0,0,0,0,0,-5.5628,-5.5721,-5.5788,-5.5917,-5.5952,-5.5992,-5.6046,-5.6052,-5.6122,-5.615,-5.6198,-5.6267,-5.6358,-5.6418,-5.6506,-5.6665,-5.6681,-5.6735,-5.6752,-5.6765,-5.678,-5.6866,-5.689,-5.6633,-5.6633,-5.6633,0,0,-5.5689,-5.5746,-5.5804,-5.5929,-5.5982,-5.6078,-5.6016,-5.612,-5.6191,-5.6166,-5.6297,-5.6336,-5.6413,-5.6562,-5.663,-5.6598,-5.6855,-5.678,-5.679,-5.6798,-5.688,-5.6905,-5.6926,-5.6641,-5.6639,-5.6638,0,0,-5.5849,-5.5902,-5.6015,-5.607,-5.6151,-5.6177,-5.6204,-5.6281,-5.6306,-5.6439,-5.6422,-5.6507,-5.6665,-5.672,-5.677,-5.6953,-5.6935,-5.6982,-5.7069,-5.7153,-5.7173,-5.7191,-5.7255,-5.7278,-5.6997,-5.6997,-5.6997,0,-5.5915,-5.6059,-5.6075,-5.6181,-5.6236,-5.622,-5.6334,-5.6386,-5.6492,-5.653,-5.6493,-5.6691,-5.6742,-5.6903,-5.6948,-5.6989,-5.702,-5.6971,-5.7169,-5.7187,-5.7204,-5.7266,-5.729,-5.7002,-5.7001,-5.7001,-5.7,0,-5.6135,-5.6236,-5.6317,-5.642,-5.6485,-5.6595,-5.6627,-5.6691,-5.6693,-5.6722,-5.6858,-5.6919,-5.7019,-5.7058,-5.706,-5.722,-5.7197,-5.7165,-5.7098,-5.7234,-5.7291,-5.7315,-5.7009,-5.7007,-5.7006,-5.7005,0,0,-5.633,-5.6442,-5.6471,-5.6517,-5.6607,-5.6685,-5.6794,-5.6892,-5.6946,-5.702,-5.7112,-5.7247,-5.7217,-5.7273,-5.7282,-5.7356,-5.7496,-5.7314,-5.7316,-5.7345,-5.7675,-5.7697,-5.7724,-5.7486,-5.749,-5.7494,-5.7668,0,-5.6497,-5.6689,-5.6708,-5.688,-5.6973,-5.6959,-5.7054,-5.7119,-5.7151,-5.7234,-5.7269,-5.7363,-5.7318,-5.7352,-5.7425,-5.7464,-5.7562,-5.7452,-5.757,-5.7574,-5.7548,-5.7755,-5.7778,-5.7939,-5.7691,-5.7695,-5.7697,0,-5.6717,-5.6798,-5.698,-5.7056,-5.7096,-5.7181,-5.7273,-5.7353,-5.7426,-5.7444,-5.7508,-5.7507,-5.7619,-5.755,-5.7704,-5.7628,-5.7678,-5.7705,-5.7712,-5.7721,-5.7642,-5.7768,-5.7991,-5.8014,-5.7733,-5.7731,-5.7728,0,-5.6839,-5.6994,-5.7122,-5.7163,-5.7256,-5.7316,-5.7358,-5.7427,-5.7485,-5.7565,-5.7603,-5.7696,-5.7746,-5.7817,-5.7841,-5.7789,-5.7995,-5.7927,-5.8012,-5.8011,-5.8053,-5.805,-5.8285,-5.8089,-5.8089,-5.8089,-5.8088,0,-5.7022,-5.7133,-5.7178,-5.7257,-5.7382,-5.7402,-5.7525,-5.7563,-5.7625,-5.7711,-5.7706,-5.7787,-5.7815,-5.79,-5.792,-5.8045,-5.8068,-5.8085,-5.8088,-5.8084,-5.8082,-5.8115,-5.8103,-5.8095,-5.8094,-5.8092,-5.8091,0,-5.7178,-5.7213,-5.7352,-5.7429,-5.7451,-5.754,-5.7606,-5.7682,-5.7713,-5.7822,-5.7849,-5.7897,-5.7998,-5.803,-5.8151,-5.8164,-5.8309,-5.8304,-5.8284,-5.8284,-5.8366,-5.8357,-5.8629,-5.8665,-5.8447,-5.8449,-5.8451,0,-5.7291,-5.7377,-5.7464,-5.7521,-5.7565,-5.7658,-5.7717,-5.7742,-5.7803,-5.7895,-5.796,-5.806,-5.814,-5.8302,-5.8348,-5.8441,-5.8436,-5.8525,-5.845,-5.8443,-5.8435,-5.8429,-5.8437,-5.8538,-5.8541,-5.8543,-5.8544,0,-5.7489,-5.7502,-5.7588,-5.7681,-5.7752,-5.7826,-5.7897,-5.7944,-5.7979,-5.8049,-5.8152,-5.8215,-5.8339,-5.8438,-5.8533,-5.8576,-5.8566,-5.8568,-5.8592,-5.8587,-5.8572,-5.858,-5.832,-5.8561,-5.8559,-5.8558,-5.8557,-5.8556,-5.7626,-5.7701,-5.7774,-5.787,-5.7927,-5.7994,-5.8069,-5.811,-5.8196,-5.8299,-5.8309,-5.842,-5.8492,-5.8619,-5.8666,-5.8753,-5.8728,-5.8763,-5.8771,-5.8779,-5.8785,-5.856,-5.8771,-5.8771,-5.877,-5.877,-5.877,0,-5.7821,-5.7868,-5.7956,-5.8057,-5.8132,-5.8118,-5.8197,-5.826,-5.8358,-5.8427,-5.8507,-5.8626,-5.8722,-5.8776,-5.8872,-5.8932,-5.8929,-5.8956,-5.895,-5.896,-5.8803,-5.8772,-5.8956,-5.8956,-5.8956,-5.8956,-5.8956,-5.8956,-5.7932,-5.8058,-5.808,-5.8234,-5.828,-5.8389,-5.8435,-5.8497,-5.8552,-5.8684,-5.8765,-5.88,-5.8863,-5.8964,-5.9051,-5.9065,-5.91,-5.9129,-5.9139,-5.8991,-5.8971,-5.8953,-5.8924,-5.9137,-5.9137,-5.9289,-5.929,-5.9291]},{"header":{"parameterUnit":"m.s-1","parameterCategory":1,"la1":30.2991,"la2":30.254,"lo1":-89.0895,"lo2":-89.0444,"dy":0.0017,"dx":0.0017,"nx":28,"ny":28,"refTime":"2024-04-26T03:00:00:Z","depth":0,"parameterNumber":3,"parameterNumberName":"V-component_of_WINDS"},"data":[0,0,0,0,0,0,0,0,0,0,0,0,0,0,0,0,0,0,0,0,0,0,0,0,0,0,0,0,0,0,0,0,0,0,0,0,0,0,0,0,0,0,0,0,0,0,0,0,0,0,0,0,0,0,0,0,0,0,4.2229,4.2229,0,4.2202,4.2202,4.2202,4.212,4.2118,4.2116,4.2115,4.2089,4.209,4.2091,0,0,0,0,0,0,0,0,0,0,0,0,0,4.2212,4.2212,4.2229,4.2229,4.2228,4.2203,4.2202,4.2202,4.212,4.2118,4.2116,4.2114,4.2089,4.209,4.2091,0,0,0,0,0,0,0,0,0,0,0,0,0,4.2206,4.2213,4.2229,4.2184,4.218,4.2203,4.2202,4.2202,4.2121,4.2118,4.2115,4.2113,4.2089,4.209,4.2091,4.2155,0,0,4.2096,4.2097,0,0,0,0,0,0,0,0,4.2206,4.2206,4.2191,4.2188,4.2183,4.2162,4.2187,4.2186,4.2121,4.2143,4.2115,4.2111,4.2116,4.2115,4.2116,4.2154,4.2153,4.2096,4.2097,4.2098,4.2098,0,0,0,0,0,0,0,4.2207,4.2207,4.2218,4.2191,4.2186,4.2167,4.2163,4.2186,4.2145,4.2141,4.2135,4.2133,4.2113,4.2115,4.2115,4.2153,4.2096,4.2098,4.2099,4.2099,4.2243,4.2246,0,0,0,0,0,0,4.2213,4.2208,4.2219,4.2218,4.2188,4.2169,4.2165,4.2171,4.2145,4.2138,4.2135,4.2129,4.2113,4.2113,4.2113,4.2187,4.2098,4.2099,4.21,4.2241,4.2244,4.2247,0,0,0,0,0,0,4.2213,4.2215,4.222,4.2211,4.221,4.2172,4.218,4.2172,4.2174,4.214,4.2133,4.2145,4.2111,4.2111,4.2146,4.2185,4.21,4.2101,4.2237,4.2242,4.2246,4.2334,0,0,0,0,0,0,4.2213,4.2215,4.2238,4.2212,4.2211,4.2252,4.2183,4.2174,4.2176,4.2168,4.2147,4.2141,4.2109,4.2144,4.2147,4.2185,4.2103,4.2233,4.2239,4.2244,4.2327,4.2341,4.2352,0,0,0,0,0,4.2212,4.2264,4.224,4.2242,4.2239,4.2255,4.2254,4.2216,4.218,4.2203,4.2182,4.2141,4.218,4.2148,4.2151,4.219,4.2231,4.2237,4.2244,4.2322,4.2338,4.2352,0,0,0,0,0,0,4.2296,4.226,4.2233,4.2277,4.227,4.2241,4.2269,4.2235,4.2237,4.223,4.2183,4.2179,4.222,4.2209,4.2174,4.2251,4.2199,4.2206,4.2257,4.2272,4.2285,4.2286,4.2104,0,0,0,0,0,4.232,4.2335,4.2303,4.2346,4.2343,4.2307,4.2313,4.2284,4.2275,4.2271,4.2252,4.2245,4.2256,4.2263,4.2271,4.2326,4.232,4.2355,4.2367,4.2377,4.2384,4.2413,4.2428,4.2269,4.2269,4.2269,0,0,4.2369,4.2351,4.2363,4.2362,4.2353,4.237,4.2305,4.2326,4.2339,4.2274,4.2305,4.2292,4.2281,4.2326,4.2345,4.2318,4.2427,4.2386,4.2394,4.2395,4.2421,4.2436,4.245,4.2273,4.2272,4.2272,0,0,4.2467,4.2455,4.2489,4.2482,4.2469,4.2445,4.2453,4.243,4.2418,4.2449,4.2401,4.2416,4.2435,4.243,4.2429,4.2528,4.2491,4.2532,4.2597,4.2625,4.2638,4.2649,4.2684,4.2697,4.2539,4.2539,4.2539,0,4.253,4.2553,4.2512,4.2536,4.2537,4.248,4.2516,4.251,4.2501,4.2504,4.2473,4.2497,4.2485,4.2528,4.2553,4.2554,4.2563,4.2534,4.2639,4.265,4.2659,4.2693,4.2706,4.2544,4.2544,4.2543,4.2543,0,4.2631,4.2649,4.2678,4.267,4.2675,4.2705,4.2669,4.2679,4.2651,4.2631,4.2663,4.2648,4.2652,4.2661,4.2633,4.27,4.2684,4.2648,4.2594,4.268,4.2711,4.2723,4.2552,4.255,4.2548,4.2547,0,0,4.2779,4.2749,4.2761,4.2757,4.2739,4.2752,4.2781,4.2784,4.2794,4.279,4.2813,4.2831,4.2798,4.2798,4.2769,4.2795,4.2874,4.2755,4.2754,4.2777,4.2948,4.2975,4.299,4.285,4.2852,4.2854,4.2949,0,4.2872,4.2917,4.2882,4.2934,4.295,4.2897,4.2921,4.2914,4.2896,4.2908,4.2889,4.2902,4.2857,4.2857,4.2879,4.286,4.2908,4.2852,4.2871,4.2872,4.2875,4.3006,4.3035,4.3125,4.296,4.2962,4.2964,0,4.2986,4.2987,4.3041,4.3021,4.3026,4.3049,4.305,4.3062,4.3053,4.3038,4.3039,4.3005,4.3032,4.298,4.3017,4.298,4.2986,4.2978,4.2981,4.298,4.2923,4.3009,4.3153,4.3166,4.2982,4.2981,4.2979,0,4.3089,4.3104,4.3138,4.3137,4.3114,4.3131,4.3123,4.3111,4.3116,4.3118,4.3121,4.3126,4.3129,4.3134,4.3102,4.3067,4.3144,4.3089,4.3133,4.3134,4.3151,4.315,4.3297,4.3156,4.3156,4.3155,4.3155,0,4.3196,4.3231,4.3184,4.3205,4.3243,4.3203,4.3242,4.3228,4.3219,4.3237,4.3192,4.321,4.3167,4.3181,4.3157,4.3192,4.3193,4.3183,4.3176,4.3187,4.3188,4.3189,4.3182,4.3159,4.3158,4.3157,4.3157,0,4.3317,4.3287,4.3321,4.3297,4.3292,4.3321,4.3301,4.332,4.33,4.3324,4.3327,4.3296,4.331,4.3279,4.3289,4.3273,4.3323,4.3306,4.3326,4.332,4.3366,4.3362,4.3518,4.3537,4.3384,4.3386,4.3387,0,4.3387,4.3412,4.3392,4.34,4.3394,4.3409,4.3414,4.3376,4.3384,4.3376,4.3397,4.3407,4.3413,4.3439,4.3418,4.3426,4.3409,4.3463,4.3409,4.342,4.3409,4.3408,4.3411,4.3474,4.3476,4.3477,4.3478,0,4.3514,4.3498,4.3507,4.3511,4.3519,4.352,4.3519,4.3529,4.3488,4.3499,4.3513,4.3518,4.3529,4.354,4.3544,4.3535,4.3501,4.3495,4.3506,4.3517,4.3527,4.3522,4.3355,4.3492,4.349,4.3489,4.3489,4.3488,4.3611,4.3632,4.3621,4.3633,4.3628,4.3628,4.3645,4.3627,4.3638,4.3643,4.3621,4.364,4.3632,4.3632,4.3628,4.3644,4.3619,4.3634,4.3638,4.3643,4.365,4.3525,4.3644,4.3644,4.3643,4.3643,4.3643,0,4.3736,4.3727,4.3738,4.3738,4.3747,4.3714,4.3711,4.3721,4.3739,4.3734,4.3741,4.3758,4.3769,4.3749,4.3758,4.3774,4.3758,4.3777,4.3775,4.3774,4.3671,4.3661,4.379,4.379,4.379,4.379,4.379,4.379,4.3803,4.3836,4.382,4.3851,4.3841,4.3859,4.3861,4.3861,4.3857,4.3877,4.3886,4.3873,4.3863,4.387,4.3879,4.3873,4.3878,4.3903,4.3892,4.3796,4.3781,4.3768,4.3758,4.3905,4.3905,4.3993,4.3994,4.3995]}]]